When you browse on this site, cookies collect data to enhance your experience and personalize the content and advertising you see.
Visit our Privacy Policy to learn more. By continuing to use the site, you agree to this use of cookies and data.
  • en France
  • Liste des pays
  • À 7 jours
  • Température de l'eau
  • Carte satellitaire
  • Carte météo
  • Widgets météo
  • user-avatar
    Se connecter

    Météo par heure à Tyrgowishte

    Ce jour, 21 Mars, Jeudi

    Heure Température Précipitation Vent Pression Humidité
    00:00 +7°C° 0 mm 2 m/s 754 mmHg 78%
    01:00 +6°C° 0 mm 2 m/s 754 mmHg 79%
    02:00 +6°C° 0 mm 2 m/s 754 mmHg 76%
    03:00 +5°C° 0 mm 2 m/s 754 mmHg 77%
    04:00 +5°C° 0 mm 2 m/s 754 mmHg 78%
    05:00 +6°C° 0 mm 1 m/s 754 mmHg 79%
    06:00 +5°C° 0 mm 2 m/s 755 mmHg 75%
    07:00 +6°C° 0 mm 2 m/s 755 mmHg 71%
    08:00 +7°C° 0 mm 2 m/s 755 mmHg 65%
    09:00 +8°C° 0 mm 2 m/s 756 mmHg 61%
    10:00 +9°C° 0 mm 3 m/s 756 mmHg 56%
    11:00 +10°C° 0 mm 3 m/s 756 mmHg 51%
    12:00 +11°C° 0 mm 3 m/s 755 mmHg 49%
    13:00 +13°C° 0 mm 2 m/s 755 mmHg 48%
    14:00 +14°C° 0 mm 2 m/s 755 mmHg 46%
    15:00 +14°C° 0 mm 2 m/s 755 mmHg 47%
    16:00 +14°C° 0 mm 2 m/s 754 mmHg 48%
    17:00 +14°C° 0 mm 2 m/s 754 mmHg 49%
    18:00 +13°C° 0 mm 2 m/s 754 mmHg 53%
    19:00 +10°C° 0 mm 2 m/s 754 mmHg 57%
    20:00 +10°C° 0 mm 1 m/s 754 mmHg 61%
    21:00 +10°C° 0 mm 1 m/s 754 mmHg 63%
    22:00 +8°C° 0 mm 0 m/s 754 mmHg 65%
    23:00 +7°C° 0 mm 0 m/s 755 mmHg 67%

    Demain, 22 Mars, Vendredi

    Heure Température Précipitation Vent Pression Humidité
    00:00 +7°C° 0 mm 0 m/s 755 mmHg 68%
    01:00 +7°C° 0 mm 0 m/s 755 mmHg 69%
    02:00 +8°C° 0 mm 1 m/s 754 mmHg 70%
    03:00 +7°C° 0 mm 1 m/s 754 mmHg 71%
    04:00 +7°C° 0 mm 1 m/s 754 mmHg 72%
    05:00 +7°C° 0 mm 1 m/s 754 mmHg 74%
    06:00 +8°C° 0 mm 1 m/s 754 mmHg 72%
    07:00 +9°C° 0 mm 1 m/s 754 mmHg 70%
    08:00 +9°C° 0 mm 1 m/s 754 mmHg 69%
    09:00 +10°C° 0 mm 2 m/s 754 mmHg 64%
    10:00 +12°C° 0 mm 2 m/s 754 mmHg 60%
    11:00 +14°C° 0 mm 2 m/s 754 mmHg 55%
    12:00 +15°C° 0 mm 2 m/s 753 mmHg 52%
    13:00 +14°C° 0 mm 3 m/s 753 mmHg 50%
    14:00 +16°C° 0 mm 3 m/s 752 mmHg 47%
    15:00 +16°C° 0 mm 3 m/s 752 mmHg 48%
    16:00 +16°C° 0 mm 3 m/s 751 mmHg 49%
    17:00 +16°C° 0 mm 3 m/s 751 mmHg 50%
    18:00 +14°C° 0 mm 2 m/s 751 mmHg 54%
    19:00 +13°C° 0 mm 2 m/s 751 mmHg 59%
    20:00 +12°C° 0 mm 1 m/s 751 mmHg 63%
    21:00 +11°C° 0 mm 1 m/s 751 mmHg 64%
    22:00 +11°C° 0 mm 1 m/s 751 mmHg 66%
    23:00 +10°C° 0 mm 1 m/s 751 mmHg 67%

    Après-demain, 23 Mars, Samedi

    Heure Température Précipitation Vent Pression Humidité
    00:00 +10°C° 0 mm 1 m/s 751 mmHg 67%
    01:00 +10°C° 0 mm 1 m/s 751 mmHg 68%
    02:00 +10°C° 0 mm 1 m/s 751 mmHg 68%
    03:00 +9°C° 0 mm 1 m/s 751 mmHg 72%
    04:00 +9°C° 0 mm 1 m/s 751 mmHg 76%
    05:00 +8°C° 0 mm 1 m/s 750 mmHg 80%
    06:00 +9°C° 0 mm 1 m/s 750 mmHg 77%
    07:00 +10°C° 0 mm 1 m/s 751 mmHg 75%
    08:00 +10°C° 0 mm 1 m/s 751 mmHg 73%
    09:00 +11°C° 0 mm 1 m/s 751 mmHg 68%
    10:00 +12°C° 0 mm 2 m/s 751 mmHg 64%
    11:00 +12°C° 0 mm 3 m/s 750 mmHg 59%
    12:00 +12°C° 0 mm 3 m/s 750 mmHg 58%
    13:00 +12°C° 0 mm 3 m/s 750 mmHg 58%
    14:00 +12°C° 0 mm 3 m/s 749 mmHg 57%
    15:00 +13°C° 0 mm 2 m/s 749 mmHg 57%
    16:00 +13°C° 0 mm 2 m/s 749 mmHg 56%
    17:00 +13°C° 0 mm 2 m/s 749 mmHg 56%
    18:00 +12°C° 0 mm 2 m/s 749 mmHg 60%
    19:00 +10°C° 0 mm 1 m/s 749 mmHg 64%
    20:00 +9°C° 0 mm 1 m/s 749 mmHg 68%
    21:00 +9°C° 0 mm 1 m/s 749 mmHg 66%
    22:00 +9°C° 0 mm 1 m/s 750 mmHg 64%
    23:00 +9°C° 0 mm 1 m/s 750 mmHg 62%

    24 Mars, Dimanche

    Heure Température Précipitation Vent Pression Humidité
    00:00 +8°C° 0 mm 1 m/s 750 mmHg 58%
    01:00 +7°C° 0 mm 1 m/s 750 mmHg 54%
    02:00 +7°C° 0 mm 1 m/s 750 mmHg 49%
    03:00 +6°C° 0 mm 1 m/s 750 mmHg 49%
    04:00 +5°C° 0 mm 0 m/s 749 mmHg 48%
    05:00 +4°C° 0 mm 0 m/s 749 mmHg 47%
    06:00 +5°C° 0 mm 0 m/s 750 mmHg 45%
    07:00 +6°C° 0 mm 0 m/s 750 mmHg 44%
    08:00 +7°C° 0 mm 0 m/s 750 mmHg 43%
    09:00 +9°C° 0 mm 1 m/s 750 mmHg 40%
    10:00 +10°C° 0 mm 2 m/s 750 mmHg 36%
    11:00 +12°C° 0 mm 2 m/s 750 mmHg 33%
    12:00 +13°C° 0 mm 2 m/s 750 mmHg 32%
    13:00 +13°C° 0 mm 3 m/s 749 mmHg 31%
    14:00 +14°C° 0 mm 3 m/s 749 mmHg 30%
    15:00 +15°C° 0 mm 2 m/s 748 mmHg 32%
    16:00 +15°C° 0 mm 2 m/s 748 mmHg 33%
    17:00 +15°C° 0 mm 2 m/s 748 mmHg 34%
    18:00 +13°C° 0 mm 2 m/s 748 mmHg 39%
    19:00 +12°C° 0 mm 1 m/s 748 mmHg 43%
    20:00 +9°C° 0 mm 0 m/s 748 mmHg 47%
    21:00 +10°C° 0 mm 1 m/s 748 mmHg 49%
    22:00 +9°C° 0 mm 1 m/s 748 mmHg 51%
    23:00 +9°C° 0 mm 1 m/s 748 mmHg 53%

    25 Mars, Lundi

    Heure Température Précipitation Vent Pression Humidité
    00:00 +8°C° 0 mm 1 m/s 747 mmHg 54%
    01:00 +8°C° 0 mm 1 m/s 747 mmHg 56%
    02:00 +8°C° 0 mm 1 m/s 747 mmHg 57%
    03:00 +7°C° 0 mm 1 m/s 746 mmHg 57%
    04:00 +7°C° 0 mm 1 m/s 746 mmHg 57%
    05:00 +7°C° 0 mm 1 m/s 746 mmHg 57%
    06:00 +8°C° 0 mm 1 m/s 746 mmHg 55%
    07:00 +9°C° 0 mm 1 m/s 746 mmHg 53%
    08:00 +10°C° 0 mm 1 m/s 746 mmHg 51%
    09:00 +12°C° 0 mm 2 m/s 745 mmHg 44%
    10:00 +15°C° 0 mm 2 m/s 745 mmHg 38%
    11:00 +17°C° 0 mm 2 m/s 745 mmHg 31%
    12:00 +18°C° 0 mm 3 m/s 744 mmHg 32%
    13:00 +19°C° 0 mm 4 m/s 744 mmHg 33%
    14:00 +19°C° 0 mm 4 m/s 743 mmHg 34%
    15:00 +19°C° 0 mm 4 m/s 743 mmHg 38%
    16:00 +19°C° 0 mm 4 m/s 742 mmHg 42%
    17:00 +18°C° 0 mm 4 m/s 742 mmHg 46%
    18:00 +17°C° 0.3 mm 4 m/s 742 mmHg 54%
    19:00 +14°C° 0.3 mm 3 m/s 742 mmHg 62%
    20:00 +12°C° 0.3 mm 3 m/s 743 mmHg 71%
    21:00 +12°C° 0.1 mm 2 m/s 743 mmHg 76%
    22:00 +10°C° 0.1 mm 2 m/s 743 mmHg 81%
    23:00 +8°C° 0.1 mm 2 m/s 743 mmHg 86%

    26 Mars, Mardi

    Heure Température Précipitation Vent Pression Humidité
    00:00 +8°C° 0 mm 2 m/s 743 mmHg 85%
    01:00 +9°C° 0 mm 2 m/s 743 mmHg 83%
    02:00 +10°C° 0 mm 1 m/s 743 mmHg 82%
    03:00 +8°C° 0 mm 2 m/s 743 mmHg 83%
    04:00 +8°C° 0 mm 2 m/s 743 mmHg 84%
    05:00 +7°C° 0 mm 2 m/s 743 mmHg 85%
    06:00 +8°C° 0 mm 3 m/s 743 mmHg 82%
    07:00 +8°C° 0 mm 3 m/s 743 mmHg 79%
    08:00 +8°C° 0 mm 3 m/s 743 mmHg 76%
    09:00 +8°C° 0.1 mm 4 m/s 743 mmHg 71%
    10:00 +8°C° 0.1 mm 5 m/s 743 mmHg 65%
    11:00 +9°C° 0.1 mm 6 m/s 742 mmHg 59%
    12:00 +10°C° 0 mm 6 m/s 742 mmHg 54%
    13:00 +11°C° 0 mm 7 m/s 741 mmHg 48%
    14:00 +11°C° 0 mm 7 m/s 741 mmHg 43%
    15:00 +11°C° 0 mm 8 m/s 740 mmHg 44%
    16:00 +10°C° 0 mm 8 m/s 740 mmHg 46%
    17:00 +10°C° 0 mm 8 m/s 740 mmHg 47%
    18:00 +9°C° 0 mm 8 m/s 740 mmHg 48%
    19:00 +8°C° 0 mm 7 m/s 740 mmHg 48%
    20:00 +7°C° 0 mm 6 m/s 740 mmHg 48%
    21:00 +6°C° 0 mm 7 m/s 740 mmHg 53%
    22:00 +5°C° 0 mm 7 m/s 740 mmHg 57%
    23:00 +4°C° 0 mm 7 m/s 740 mmHg 62%
    Voir plus